Regional Weather Roundup
Issued by NWS Huntsville, AL

Home | Current Version | Previous Version | Text Only | Print | Product List | Glossary On
Versions: 1 2 3 4 5 6 7 8 9 10 11 12 13 14 15 16 17 18 19 20 21 22 23 24 25 26 27 28 29 30 31 32 33 34 35 36 37 38 39 40 41 42 43 44 45 46 47 48 49 50
000
ASUS44 KHUN 301310
RWRHUN

WEATHER ROUNDUP FOR THE TENNESSEE VALLEY
NATIONAL WEATHER SERVICE HUNTSVILLE AL
800 AM CDT THU MAR 30 2017

ALZ001>004-301400-
NORTHWEST ALABAMA

CITY           SKY/WX    TMP DP  RH WIND       PRES   REMARKS
COURTLAND HCN    N/A     66 N/A N/A S12         N/A
RUSSELLVILLE     N/A     66 N/A N/A MISG        N/A
SHOALS AIRPORT CLOUDY    68  57  68 S18G28    29.77F
SHOALS TVA RES   N/A     68 N/A N/A MISG        N/A
$$

ALZ005>007-016-301400-
NORTH CENTRAL ALABAMA

CITY           SKY/WX    TMP DP  RH WIND       PRES   REMARKS
CULLMAN AG STN   N/A     64 N/A N/A SW8         N/A
DECATUR AP     CLOUDY    65  61  87 S12       29.89S
HUNTSVILLE AP  CLOUDY    67  62  84 S12       29.89F
MERIDIANVILLE  CLOUDY    66  59  77 S10       29.91F
REDSTONE ARSN  CLOUDY    65  61  86 S6        29.89F
VINEMONT AP    CLOUDY    64  60  88 S9        29.94F
$$

ALZ008>010-301400-
NORTHEAST ALABAMA

CITY           SKY/WX    TMP DP  RH WIND       PRES   REMARKS
ALBERTVILLE    CLOUDY    64  64 100 S6        29.95S
FORT PAYNE     CLOUDY    63  55  77 SW7       29.97R
SCOTTSBORO AP  CLOUDY    66  59  77 S6        29.95F
SCOTTSBORO HCN   N/A     64 N/A N/A MISG        N/A
VALLEY HEAD      N/A     64 N/A N/A MISG        N/A
$$

TNZ076-096-097-301400-
SOUTHEASTERN MIDDLE TENNESSEE

CITY           SKY/WX    TMP DP  RH WIND       PRES   REMARKS
TULLAHOMA      PTSUNNY   64  55  72 S9        29.91F
WINCHESTER     MOSUNNY   66  57  72 S9        29.93S
$$

...SURROUNDING SITES...

CITY           SKY/WX    TMP DP  RH WIND       PRES   REMARKS
ATLANTA        CLOUDY    65  58  78 CALM      30.01R
ANNISTON       CLOUDY    65  62  90 SW7       29.98S
BIRMINGHAM     CLOUDY    67  62  84 S13       29.97S
CHATTANOOGA    CLOUDY    66  57  72 S6        29.96R
CORINTH        FAIR      64  57  77 VRB6      29.75R
DALTON         CLOUDY    64  59  82 S3        29.98R
GADSDEN        MOSUNNY   66  60  81 S7        29.96F
GOLDEN TRNGL   SUNNY     70  48  46 S23G41    29.75F
HALEYVILLE     FAIR      64  60  87 S14G20    29.85F
JACKSON TN     CLOUDY    69  54  58 S8G21     29.72R
MEMPHIS        PTSUNNY   66  58  75 S16G24    29.71S
NASHVILLE      CLOUDY    68  58  70 S17       29.80F
OXFORD MS      FAIR      64  52  63 S13G21    29.78S
ROME           CLOUDY    63  58  83 CALM      29.98R
SAVANNAH       SUNNY     70  57  64 SW10      29.75R
TUPELO         CLOUDY    65  54  67 S7        29.77R
TUSCALOOSA     CLOUDY    66  63  90 S7        29.93S
$$

...GULF COAST WEATHER...

CITY           SKY/WX    TMP DP  RH WIND       PRES   REMARKS
GULFPORT       MOSUNNY   74  71  91 SE7       29.89F
PASCAGOULA     CLOUDY    74  69  85 S5        29.92S
MOBILE         PTSUNNY   72  68  87 SE7       29.94S FOG
GULF SHORES    MOSUNNY   70  70 100 E9        29.94S
PENSACOLA      PTSUNNY   73  69  87 S3        29.95R
DESTIN         MOSUNNY   73  72  96 SE3       29.97R
PANAMA CITY    SUNNY     70  67  91 SE3       29.98R
APPALACHICOLA  CLOUDY    72  67  84 S8        29.97R
$$




USA.gov is the U.S. government's official web portal to all federal, state and local government web resources and services.